Погода в Каунасе

Поиск расширенной информации на нашем сайте:

Полезная информация:

Новости сайта



02.01.2020
Опубликован Долгосрочный прогноз погоды по городам России и ближнего зарубежья на январь 2020 года.
Карты: Прогноз на январь и февраль 2020 года, Сравнение прогнозируемой аномалии приземной температуры воздуха на январь 2020 года по разным моделям.




Погода в Каунасе - сегодня

Время (UTC), дата Ветер
(°,м/с) 
Видим.   Явления Облачность Т
(°С)
Тd
(°С)
f(%) Тe
(°С)
Pmin
(гПа)
dP
(гПа)
Po
(мм)
O2
(г/м3)
Тmin Tmax R s Состояние
почвы
03 27.11.21 050 (СВ) 3-6{07}  2700 м  слаб. снег{дождь}  10/10 120 м 
[Ns]
+0.7 +0.1 96 -1  994.2  -2.9  739  297           
06 27.11.21 040 (СВ) 3-6{09}  2200 м  слаб. снег{дождь}  10/10 210 м 
[Ns]
+0.6 +0 96 -1  992.4  -1.8  737  296  +0.6    <0.5  равномерный
мокрый или
старый снег
100% 
09 27.11.21 020 (С) 4-6{08}  2900 м  слаб. снег  10/10 150 м 
[Ns]
+0.4 -0.1 96 -2  991.3  -1.1  736  296        <0.5   
12 27.11.21 010 (С) 4-5{07}  2300 м  слаб. снег  10/10 100 м 
[Ns]
+0.3 -0.1 97 -2  991.4  0.1  736  296       
15 27.11.21 320 (СЗ) 2-2{06}  4500 м  слаб. снег  10/10 120 м 
[Ns]
+0.3 -0.1 97 992.7  1.3  737  297        равномерный
мокрый или
старый снег
100% 
18 27.11.21 250 (З) 2-3{04}  3100 м  слаб. снег{дождь}  10/10 100 м 
[Ns]
+0.3 -0.2 96 994.5  1.7  739  297    +0.7  равномерный
мокрый или
старый снег
100% 
21 27.11.21 240 (ЮЗ) 2-3{03}  0300 м  туман{снег}  ?/?  
+0.3 +0 98 996.2  1.7  740  298        равномерный
мокрый или
старый снег
100% 
00 28.11.21 250 (З) 4-6{07}  7000 м  в посл. час туман{снег}  10/10 120 м 
[St]
+0.4 +0.1 98 -2  996.9  0.7  740  298      0.1  равномерный
мокрый или
старый снег
100% 
03 28.11.21 230 (ЮЗ) 3-4{06}  6000 м  дымка  10/10 450 м 
[Sc]
+0.7 +0.1 96 -1  998  1.1  741  298        равномерный
мокрый или
старый снег
100% 
06 28.11.21 220 (ЮЗ) 3-4{05}  8000 м  дымка  10/10 1050 м 
[Sc]
+0.9 +0.2 95 -1  999.2  1.2  742  298  +0.2    0.1  равномерный
мокрый или
старый снег
100% 
09 28.11.21 200 (Ю) 4-5{07}  10 км  {снег, дождь}  9/9 1050 м 
[Sc]
+1.1 -0.1 92 -1  1000.6  1.4  743  298        <0.5  равномерный
мокрый или
старый снег
100% 
12 28.11.21 190 (Ю) 5-7{08}  19000 м  {снег, дождь}  10/10 420 м 
[Sc]
+1.6 -0.9 83 -1  1000.8  0.2  743  298      0.1  <0.5  равномерный
мокрый или
старый снег
100% 
15 28.11.21 160 (Ю) 4-5{07}  18000 м    10/10 450 м 
[Sc]
+1.1 -1.7 82 -1  1000.8  743  299           
18 28.11.21 060 (СВ) 1-2{05}  7000 м  дымка  10/10 500 м 
[Sc]
+0.8 -1.5 85 +1  1000.7  -0.1  743  299    +1.8  0.1     
21 28.11.21 050 (СВ) 2-4{05}  7000 м  дымка  10/10 630 м 
[Sc]
+0.8 -0.9 88 999.7  -1  743  298           
00 29.11.21 060 (СВ) 4-7{07}  6000 м  слаб. дождь со снегом  10/10 210 м 
[Ns]
+1.1 -0.2 91 -1  997.4  -2.3  741  297      0.0  <0.5  равномерный
мокрый или
старый снег
100% 
03 29.11.21 050 (СВ) 4-7{08}  1800 м  слаб. снег{дождь}  10/10 210 м 
[Ns]
+0.5 -0.3 94 -2  995.4  -2  739  297        <0.5  равномерный
мокрый или
старый снег
100% 
06 29.11.21 030 (СВ) 2-5{08}  1300 м  слаб. снег{дождь}  ясно 120 м 
+0.1 -0.4 96 -1  993.2  -2.2  738  297  +0.1    равномерный
мокрый или
старый снег
100% 
09 29.11.21 020 (С) 4-7{07}  2800 м  слаб. снег  10/10 100 м 
[Ns]
+0.3 +0 98 -2  991.6  -1.5  737  296        равномерный
мокрый или
старый снег
100% 
12 29.11.21 360 (С) 5-7{07}  2000 м  слаб. снег  10/10 240 м 
[Ns]
+0.2 -0.2 97 -3  989.2  -2.4  735  296      равномерный
мокрый или
старый снег
100% 
15 29.11.21 350 (С) 6-9{10}  1400 м  слаб. снег  10/10 180 м 
[Ns]
-0.3 -0.9 96 -4  988.6  -0.6  734  296        равномерный
сухой снег
100% 
18 29.11.21 340 (С) 5-9{11}  3200 м  слаб. снег  10/10 210 м 
[Ns]
-1.6 -2.2 96 -5  989  0.3  735  298    +0.3  равномерный
сухой снег
100% 
21 29.11.21 330 (СЗ) 5-8{12}  4200 м  слаб. снег  10/10 330 м 
[Ns]
-1.5 -2.5 93 -5  988.9  -0.1  734  298        равномерный
сухой снег
100% 
00 30.11.21 310 (СЗ) 7-11{13}  16000 м  слаб. снег  10/10 400 м 
[Ns]
-1 -2.7 88 -5  989.6  0.7  735  298      0.3  неравномерный
сухой снег
100% 
03 30.11.21 320 (СЗ) 7-13{16}  19000 м  позёмок{снег}  10/10 480 м 
[Sc]
-0.9 -3.5 82 -5  991.3  1.7  736  298        неравномерный
сухой снег
100% 
Время (UTC), дата Ветер
(°,м/с) 
Видим.   Явления Облачность Т
(°С)
Тd
(°С)
f(%) Тe
(°С)
Pmin
(гПа)
dP
(гПа)
Po
(мм)
O2
(г/м3)
Тmin Tmax R s Состояние
почвы

Для получения пояснительной информации подведите курсор к названию столбца.

ПОГОДА в Каунасе - архив

Всё, что Вы хотите узнать о погоде в Каунасе - удобно и подробно!

Выберите нужную дату (начиная с 1 января 2019* года) и нажмите кнопку "Найти".
Будут отображены архивные сводки погоды по пункту Каунас, начиная с указанной даты.


Отображать данные в формате CSV (для использования в таблицах Excel)


Внимание! Наш архив погоды предназначен исключительно для личного некоммерческого использования в познавательных целях. Если Вам необходимы официальные справки о состоянии погоды (для производственных, юридических, коммерческих и т.п. целей), обращайтесь в органы Росгидромета.

*Примечание: данная дата относится к архиву по метеостанциям СССР (Россия, СНГ, Балтия).
Архив по метеостанциям Зарубежной Европы и Азии (кроме Китая) хранится 10 дней, по другим регионам земного шара (Китай, Африка, Америка, Австралия, Океания) - 1 день.

Каунас - район местоположения метеостанции


Название, широта, долгота, высота метеостанции:
Каунас 54.9°ш. 23.8°д. 77 м над ур. моря [Литва]

Дополнительная информация

В oтличие oт бoльшинства пoгoдных сайтoв мы публикуем пoдрoбную метеoинфoрмацию в детальнoм прoфессиoнальнoм фoрмате.

Характеристики температуры и влажнoсти вoздуха измеряются на высoте 2 м в тени вдали oт зданий и деревьев.
Скoрoсть ветра измеряется на высoте 10 м (на урoвне рoста челoвека скoрoсть ветра ниже в 1.5-2 раза). Если метеoстанция нахoдится в гoрoде или в лесу, тo скoрoсть ветра занижена на 2-4 м/с пo сравнению с oткрытым местoм. Скoрoсть ветра над акватoриями крупных рек и oзёр, а также на вершинах хoлмoв на 2-5 м/с выше, чем в oбычных услoвиях.
Атмoсфернoе давление в разных тoчках местнoсти мoжет значительнo oтличаться oт давления на метеoстанции, в зависимoсти oт услoвий рельефа (при пoдъёме на 10 м давление пoнижается примернo на 1 мм рт.ст.).